Satellite: PO-28
Catalog number: 22829
Epoch time:      08226.95893770
Element set:    0014
Inclination:      098.3687 deg
RA of node:       186.8043 deg
Eccentricity:    0.0010659
Arg of perigee:   062.2436 deg
Mean anomaly:     297.9818 deg
Mean motion:   14.30195169 rev/day
Decay rate:        7.9e-07 rev/day^2
Epoch rev:           77638
Checksum:              360

Satellite: GO-32
Catalog number: 25397
Epoch time:      08226.62167904
Element set:    0672
Inclination:      098.3618 deg
RA of node:       258.9379 deg
Eccentricity:    0.0002215
Arg of perigee:   083.6375 deg
Mean anomaly:     276.5052 deg
Mean motion:   14.23147402 rev/day
Decay rate:       1.22e-06 rev/day^2
Epoch rev:           52438
Checksum:              311

Satellite: NO-44
Catalog number: 26931
Epoch time:      08226.79611317
Element set:     951
Inclination:      067.0505 deg
RA of node:       136.2482 deg
Eccentricity:    0.0007335
Arg of perigee:   265.0565 deg
Mean anomaly:     094.9688 deg
Mean motion:   14.29529503 rev/day
Decay rate:      -1.97e-06 rev/day^2
Epoch rev:           35864
Checksum:              331

Satellite: SO-50
Catalog number: 27607
Epoch time:      08227.52649401
Element set:     673
Inclination:      064.5572 deg
RA of node:       236.4594 deg
Eccentricity:    0.0086475
Arg of perigee:   268.1375 deg
Mean anomaly:     090.9950 deg
Mean motion:   14.71373621 rev/day
Decay rate:       -4.0e-08 rev/day^2
Epoch rev:           30355
Checksum:              317

Satellite: CO-55
Catalog number: 27844
Epoch time:      08226.62839810
Element set:     372
Inclination:      098.7162 deg
RA of node:       234.0986 deg
Eccentricity:    0.0009391
Arg of perigee:   316.9024 deg
Mean anomaly:     043.1420 deg
Mean motion:   14.20591417 rev/day
Decay rate:        1.2e-07 rev/day^2
Epoch rev:           26559
Checksum:              303

Satellite: CO-57
Catalog number: 27848
Epoch time:      08226.56377943
Element set:     322
Inclination:      098.7167 deg
RA of node:       233.1200 deg
Eccentricity:    0.0009599
Arg of perigee:   320.5463 deg
Mean anomaly:     039.5028 deg
Mean motion:   14.20399745 rev/day
Decay rate:       -2.0e-08 rev/day^2
Epoch rev:           26555
Checksum:              323

Satellite: AO-51
Catalog number: 28375
Epoch time:      08226.97455235
Element set:    0174
Inclination:      098.0687 deg
RA of node:       248.2886 deg
Eccentricity:    0.0084547
Arg of perigee:   338.3033 deg
Mean anomaly:     021.4584 deg
Mean motion:   14.40615363 rev/day
Decay rate:       -9.0e-08 rev/day^2
Epoch rev:           21672
Checksum:              325

Satellite: CO-56
Catalog number: 28941
Epoch time:      08227.63841835
Element set:     287
Inclination:      098.1119 deg
RA of node:       346.4624 deg
Eccentricity:    0.0159081
Arg of perigee:   187.9803 deg
Mean anomaly:     171.8918 deg
Mean motion:   15.59187893 rev/day
Decay rate:     3.0157e-04 rev/day^2
Epoch rev:           13914
Checksum:              360

Satellite: CP3
Catalog number: 31128
Epoch time:      08227.77361702
Element set:     406
Inclination:      098.0351 deg
RA of node:       288.7239 deg
Eccentricity:    0.0103791
Arg of perigee:   153.1628 deg
Mean anomaly:     207.4995 deg
Mean motion:   14.51967873 rev/day
Decay rate:       -4.6e-07 rev/day^2
Epoch rev:            7043
Checksum:              314

Satellite: CP4
Catalog number: 31132
Epoch time:      08227.88437958
Element set:     387
Inclination:      098.0388 deg
RA of node:       291.2712 deg
Eccentricity:    0.0087056
Arg of perigee:   145.5678 deg
Mean anomaly:     215.1202 deg
Mean motion:   14.55135704 rev/day
Decay rate:        4.5e-07 rev/day^2
Epoch rev:            7048
Checksum:              311

/EX
SB KEPS @ AMSAT  $ORB08227.W
Orbital Elements  08227.WEATHER

HR AMSAT ORBITAL ELEMENTS FOR WEATHER SATELLITES
FROM WA5QGD FORT WORTH,TX August 14, 2008
Send Subscribe/unsubscribe to KEPS at 
http://www.amsat.org/mailman/listinfo/keps
BID: ORB08227.W
TO ALL RADIO AMATEURS BT

Satellite: NOAA-10
Catalog number: 16969
Epoch time:      08227.12648450
Element set:     246
Inclination:      098.7215 deg
RA of node:       248.9749 deg
Eccentricity:    0.0012620
Arg of perigee:   016.5451 deg
Mean anomaly:     343.6139 deg
Mean motion:   14.27365025 rev/day
Decay rate:      -1.32e-06 rev/day^2
Epoch rev:           13970
Checksum:              302

Satellite: NOAA-11
Catalog number: 19531
Epoch time:      08227.29720347
Element set:     279
Inclination:      098.7969 deg
RA of node:       315.8111 deg
Eccentricity:    0.0010778
Arg of perigee:   262.3444 deg
Mean anomaly:     097.6526 deg
Mean motion:   14.14875440 rev/day
Decay rate:       2.03e-06 rev/day^2
Epoch rev:            2612
Checksum:              307

Satellite: NOAA-12
Catalog number: 21263
Epoch time:      08227.52862040
Element set:     793
Inclination:      098.7690 deg
RA of node:       229.4796 deg
Eccentricity:    0.0011970
Arg of perigee:   320.7935 deg
Mean anomaly:     039.2377 deg
Mean motion:   14.25542186 rev/day
Decay rate:        2.6e-07 rev/day^2
Epoch rev:           89670
Checksum:              325

